• In Deutschland
  • Länderverzeichnis
  • Für 7 Tage
  • Wassertemperatur
  • Satellitenkarten
  • Wetterkarte
  • Widgets
  • user-avatar
    Anmelden

    Stündliche Wetter Bad Brückenau

    Heute, 21 Oktober, Samstag

    Zeit Temperatur Niederschläge Wind Luftdruck Luftfeuchtigkeit
    00:00 +7°C° 0 mm 2 m/S 716 mmHg 92%
    01:00 +7°C° 0 mm 2 m/S 716 mmHg 94%
    02:00 +7°C° 0 mm 2 m/S 716 mmHg 95%
    03:00 +7°C° 0 mm 2 m/S 716 mmHg 96%
    04:00 +7°C° 0 mm 2 m/S 716 mmHg 96%
    05:00 +7°C° 0 mm 2 m/S 716 mmHg 97%
    06:00 +7°C° 0 mm 2 m/S 715 mmHg 97%
    07:00 +7°C° 0 mm 2 m/S 715 mmHg 97%
    08:00 +8°C° 0 mm 2 m/S 715 mmHg 93%
    09:00 +10°C° 0 mm 3 m/S 715 mmHg 89%
    10:00 +12°C° 0 mm 3 m/S 716 mmHg 85%
    11:00 +13°C° 0 mm 4 m/S 715 mmHg 81%
    12:00 +14°C° 0 mm 4 m/S 715 mmHg 77%
    13:00 +17°C° 0 mm 4 m/S 715 mmHg 73%
    14:00 +15°C° 0,2 mm 4 m/S 715 mmHg 77%
    15:00 +14°C° 0,2 mm 4 m/S 715 mmHg 81%
    16:00 +14°C° 0,2 mm 3 m/S 715 mmHg 85%
    17:00 +13°C° 0,2 mm 3 m/S 715 mmHg 87%
    18:00 +12°C° 0,2 mm 3 m/S 715 mmHg 90%
    19:00 +12°C° 0,2 mm 3 m/S 715 mmHg 92%
    20:00 +11°C° 0,6 mm 3 m/S 715 mmHg 92%
    21:00 +10°C° 0,6 mm 3 m/S 716 mmHg 91%
    22:00 +8°C° 0,6 mm 4 m/S 716 mmHg 91%
    23:00 +8°C° 0,1 mm 4 m/S 716 mmHg 91%

    Morgen, 22 Oktober, Sonntag

    Zeit Temperatur Niederschläge Wind Luftdruck Luftfeuchtigkeit
    00:00 +7°C° 0,1 mm 4 m/S 716 mmHg 92%
    01:00 +7°C° 0,1 mm 4 m/S 717 mmHg 92%
    02:00 +7°C° 0 mm 4 m/S 716 mmHg 93%
    03:00 +6°C° 0 mm 4 m/S 716 mmHg 93%
    04:00 +6°C° 0 mm 4 m/S 716 mmHg 93%
    05:00 +6°C° 0 mm 4 m/S 716 mmHg 92%
    06:00 +5°C° 0 mm 4 m/S 716 mmHg 92%
    07:00 +5°C° 0 mm 4 m/S 716 mmHg 92%
    08:00 +5°C° 0,1 mm 4 m/S 716 mmHg 89%
    09:00 +6°C° 0,1 mm 5 m/S 716 mmHg 87%
    10:00 +6°C° 0,1 mm 5 m/S 716 mmHg 85%
    11:00 +6°C° 0,1 mm 5 m/S 716 mmHg 83%
    12:00 +7°C° 0,1 mm 5 m/S 716 mmHg 81%
    13:00 +7°C° 0,1 mm 5 m/S 716 mmHg 79%
    14:00 +7°C° 0,1 mm 5 m/S 716 mmHg 79%
    15:00 +7°C° 0,1 mm 4 m/S 715 mmHg 78%
    16:00 +7°C° 0,1 mm 4 m/S 715 mmHg 78%
    17:00 +6°C° 0 mm 4 m/S 716 mmHg 82%
    18:00 +7°C° 0 mm 3 m/S 716 mmHg 85%
    19:00 +5°C° 0 mm 3 m/S 716 mmHg 88%
    20:00 +5°C° 0,1 mm 3 m/S 716 mmHg 89%
    21:00 +5°C° 0,1 mm 3 m/S 716 mmHg 90%
    22:00 +5°C° 0,1 mm 3 m/S 717 mmHg 91%
    23:00 +4°C° 0 mm 3 m/S 717 mmHg 92%

    übermorgen, 23 Oktober, Montag

    Zeit Temperatur Niederschläge Wind Luftdruck Luftfeuchtigkeit
    00:00 +4°C° 0 mm 3 m/S 717 mmHg 93%
    01:00 +4°C° 0 mm 3 m/S 717 mmHg 94%
    02:00 +4°C° 0,2 mm 4 m/S 717 mmHg 93%
    03:00 +4°C° 0,2 mm 4 m/S 717 mmHg 92%
    04:00 +4°C° 0,2 mm 4 m/S 717 mmHg 92%
    05:00 +4°C° 0,1 mm 4 m/S 717 mmHg 92%
    06:00 +4°C° 0,1 mm 4 m/S 717 mmHg 93%
    07:00 +4°C° 0,1 mm 4 m/S 717 mmHg 93%
    08:00 +5°C° 0,1 mm 4 m/S 717 mmHg 91%
    09:00 +5°C° 0,1 mm 4 m/S 718 mmHg 89%
    10:00 +6°C° 0,1 mm 4 m/S 718 mmHg 87%
    11:00 +6°C° 0,1 mm 4 m/S 718 mmHg 86%
    12:00 +7°C° 0,1 mm 4 m/S 718 mmHg 84%
    13:00 +7°C° 0,1 mm 4 m/S 718 mmHg 83%
    14:00 +8°C° 0,1 mm 3 m/S 718 mmHg 82%
    15:00 +9°C° 0,1 mm 3 m/S 718 mmHg 82%
    16:00 +9°C° 0,1 mm 3 m/S 719 mmHg 81%
    17:00 +8°C° 0 mm 3 m/S 719 mmHg 85%
    18:00 +7°C° 0 mm 2 m/S 719 mmHg 89%
    19:00 +6°C° 0 mm 2 m/S 719 mmHg 94%
    20:00 +6°C° 0 mm 2 m/S 719 mmHg 95%
    21:00 +6°C° 0 mm 2 m/S 720 mmHg 96%
    22:00 +5°C° 0 mm 2 m/S 720 mmHg 97%
    23:00 +6°C° 0 mm 1 m/S 720 mmHg 97%

    24 Oktober, Dienstag

    Zeit Temperatur Niederschläge Wind Luftdruck Luftfeuchtigkeit
    00:00 +6°C° 0 mm 1 m/S 720 mmHg 97%
    01:00 +6°C° 0 mm 1 m/S 720 mmHg 97%
    02:00 +6°C° 0 mm 1 m/S 720 mmHg 97%
    03:00 +6°C° 0 mm 1 m/S 720 mmHg 97%
    04:00 +6°C° 0 mm 1 m/S 720 mmHg 98%
    05:00 +7°C° 0 mm 1 m/S 720 mmHg 97%
    06:00 +7°C° 0 mm 1 m/S 721 mmHg 97%
    07:00 +7°C° 0 mm 1 m/S 721 mmHg 97%
    08:00 +8°C° 0 mm 1 m/S 721 mmHg 95%
    09:00 +7°C° 0 mm 2 m/S 722 mmHg 94%
    10:00 +8°C° 0 mm 2 m/S 722 mmHg 92%
    11:00 +9°C° 0 mm 2 m/S 722 mmHg 91%
    12:00 +9°C° 0 mm 2 m/S 722 mmHg 89%
    13:00 +10°C° 0 mm 2 m/S 722 mmHg 88%
    14:00 +10°C° 0 mm 2 m/S 722 mmHg 89%
    15:00 +11°C° 0 mm 1 m/S 722 mmHg 90%
    16:00 +11°C° 0 mm 1 m/S 722 mmHg 91%
    17:00 +10°C° 0 mm 1 m/S 722 mmHg 93%
    18:00 +10°C° 0 mm 1 m/S 722 mmHg 95%
    19:00 +10°C° 0 mm 1 m/S 722 mmHg 97%
    20:00 +10°C° 0 mm 1 m/S 722 mmHg 97%
    21:00 +10°C° 0 mm 1 m/S 723 mmHg 97%
    22:00 +10°C° 0 mm 1 m/S 723 mmHg 97%
    23:00 +10°C° 0 mm 1 m/S 723 mmHg 98%

    25 Oktober, Mittwoch

    Zeit Temperatur Niederschläge Wind Luftdruck Luftfeuchtigkeit
    00:00 +10°C° 0 mm 1 m/S 723 mmHg 98%
    01:00 +10°C° 0 mm 1 m/S 723 mmHg 98%
    02:00 +10°C° 0 mm 1 m/S 723 mmHg 98%
    03:00 +10°C° 0 mm 1 m/S 722 mmHg 98%
    04:00 +10°C° 0 mm 1 m/S 722 mmHg 98%
    05:00 +10°C° 0 mm 1 m/S 722 mmHg 98%
    06:00 +10°C° 0 mm 1 m/S 723 mmHg 98%
    07:00 +11°C° 0 mm 1 m/S 723 mmHg 98%
    08:00 +11°C° 0 mm 1 m/S 723 mmHg 96%
    09:00 +12°C° 0 mm 1 m/S 723 mmHg 94%
    10:00 +12°C° 0 mm 2 m/S 723 mmHg 92%
    11:00 +13°C° 0 mm 2 m/S 723 mmHg 89%
    12:00 +14°C° 0 mm 2 m/S 723 mmHg 86%
    13:00 +15°C° 0 mm 2 m/S 723 mmHg 84%
    14:00 +15°C° 0 mm 1 m/S 723 mmHg 85%
    15:00 +15°C° 0 mm 1 m/S 723 mmHg 85%
    16:00 +15°C° 0 mm 1 m/S 723 mmHg 86%
    17:00 +14°C° 0 mm 1 m/S 723 mmHg 89%
    18:00 +13°C° 0 mm 1 m/S 723 mmHg 91%
    19:00 +13°C° 0 mm 1 m/S 723 mmHg 93%
    20:00 +12°C° 0 mm 1 m/S 723 mmHg 94%
    21:00 +12°C° 0 mm 1 m/S 723 mmHg 94%
    22:00 +12°C° 0 mm 1 m/S 723 mmHg 95%
    23:00 +11°C° 0 mm 1 m/S 723 mmHg 95%

    26 Oktober, Donnerstag

    Zeit Temperatur Niederschläge Wind Luftdruck Luftfeuchtigkeit
    00:00 +11°C° 0 mm 1 m/S 723 mmHg 95%
    01:00 +11°C° 0 mm 1 m/S 723 mmHg 96%
    02:00 +10°C° 0 mm 1 m/S 723 mmHg 96%
    03:00 +10°C° 0 mm 1 m/S 723 mmHg 96%
    04:00 +10°C° 0 mm 1 m/S 723 mmHg 96%
    05:00 +10°C° 0 mm 1 m/S 723 mmHg 96%
    06:00 +9°C° 0 mm 1 m/S 723 mmHg 96%
    07:00 +9°C° 0 mm 1 m/S 723 mmHg 95%
    08:00 +10°C° 0 mm 1 m/S 723 mmHg 91%
    09:00 +12°C° 0 mm 1 m/S 723 mmHg 86%
    10:00 +13°C° 0 mm 1 m/S 724 mmHg 81%
    11:00 +14°C° 0 mm 1 m/S 724 mmHg 77%
    12:00 +16°C° 0 mm 1 m/S 724 mmHg 72%
    13:00 +18°C° 0 mm 1 m/S 724 mmHg 68%
    14:00 +18°C° 0 mm 1 m/S 723 mmHg 70%
    15:00 +16°C° 0 mm 1 m/S 723 mmHg 73%
    16:00 +16°C° 0 mm 1 m/S 723 mmHg 75%
    17:00 +15°C° 0 mm 1 m/S 723 mmHg 80%
    18:00 +13°C° 0 mm 1 m/S 723 mmHg 84%
    19:00 +12°C° 0 mm 1 m/S 723 mmHg 89%
    20:00 +12°C° 0 mm 1 m/S 723 mmHg 89%
    21:00 +12°C° 0 mm 1 m/S 723 mmHg 89%
    22:00 +11°C° 0 mm 1 m/S 723 mmHg 89%
    23:00 +11°C° 0 mm 1 m/S 723 mmHg 90%
    Mehr zeigen